Location: Cherry Springs State Park
(41.6616°N, 77.8240°W)
Time: 01:46:29
(UTC-05:00)

Amateur Radio Satellites - All Passes

Search period start: 03 December 2016 01:16
Search period end: 04 December 2016 01:16
Location: Cherry Springs State Park, 41.6616°N, 77.8240°W

Satellite Date Start Highest point End Downlink Frequencies (MHz)
Time Altitude Azimuth
DUCHIFAT 1 03 Dec 01:19:25 01:21:55 15° 296° (WNW) 01:24:23 145.980
Cosmos 2499 03 Dec 01:20:34 01:29:02 87° 277° (W) 01:37:59 435.465 / 435.565
Gurwin Techsat 1B 03 Dec 01:26:48 01:31:21 28° 95° (E) 01:35:52 435.225
AO-85 03 Dec 01:37:42 01:40:02 13° 109° (ESE) 01:42:19 145.980
PHONESAT 2.4 03 Dec 01:40:23 01:42:10 16° 154° (SSE) 01:43:57 2401.200-2431.200
SWISSCUBE 03 Dec 01:43:30 01:48:15 67° 74° (ENE) 01:53:00 437.505
BEESAT 03 Dec 01:47:58 01:52:42 67° 73° (ENE) 01:57:27 436.000
MOZHAYETS 4 03 Dec 01:51:02 01:53:59 17° 64° (ENE) 01:56:54
Oscar 19 03 Dec 01:59:42 02:04:53 75° 286° (WNW) 02:10:04 437.125/150
TISAT 1 03 Dec 02:01:20 02:04:06 17° 268° (W) 02:06:52 437.305
AUBIESAT-1 03 Dec 02:07:34 02:11:24 43° 257° (WSW) 02:15:31 437.475
ITUPSAT 1 03 Dec 02:13:07 02:17:54 71° 258° (WSW) 02:22:42 437.325
M-CUBED/EXP-1 PRIME 03 Dec 02:17:12 02:20:37 28° 260° (W) 02:24:18 437.505
ITAMSAT 1 03 Dec 02:21:02 02:24:48 20° 93° (E) 02:28:33 435.822/435.867
O/OREOS (USA 219) 03 Dec 02:36:20 02:40:50 85° 68° (ENE) 02:45:18 437.305
KKS-1 03 Dec 02:46:33 02:50:18 27° 67° (ENE) 02:54:06 437.445
AO-7 03 Dec 03:00:00 03:07:22 33° 97° (E) 03:14:40 29.400- 29.500
STARS 03 Dec 03:03:15 03:06:25 20° 65° (ENE) 03:09:37 437.465
Gurwin Techsat 1B 03 Dec 03:06:28 03:11:20 37° 292° (WNW) 03:16:11 435.225
GONETS M04 03 Dec 03:09:21 03:16:04 24° 295° (WNW) 03:22:48
PHONESAT 2.4 03 Dec 03:14:31 03:17:07 52° 169° (S) 03:19:43 2401.200-2431.200
AO-85 03 Dec 03:15:03 03:20:00 76° 303° (WNW) 03:24:36 145.980
Cosmos 2499 03 Dec 03:17:41 03:23:32 20° 299° (WNW) 03:29:35 435.465 / 435.565
CUBESAT XI-V 03 Dec 03:20:28 03:23:49 20° 66° (ENE) 03:27:12 437.345
SWISSCUBE 03 Dec 03:24:20 03:26:29 13° 270° (W) 03:28:38 437.505
MOZHAYETS 4 03 Dec 03:26:14 03:30:43 51° 260° (W) 03:35:13
BEESAT 03 Dec 03:28:44 03:30:55 13° 270° (W) 03:33:07 436.000
Oscar 19 03 Dec 03:42:43 03:43:18 10° 303° (WNW) 03:43:53 437.125/150
ITAMSAT 1 03 Dec 03:59:31 04:04:32 50° 289° (WNW) 04:09:30 435.822/435.867
KKS-1 03 Dec 04:22:55 04:26:47 29° 264° (W) 04:30:41 437.445
SO-50 03 Dec 04:23:46 04:26:52 18° 40° (NE) 04:29:54 436.795
STARS 03 Dec 04:38:18 04:42:28 41° 261° (W) 04:46:41 437.465
YUBILEINY 03 Dec 04:48:00 04:53:35 18° 60° (ENE) 04:59:08 435.215
PHONESAT 2.4 03 Dec 04:49:40 04:52:18 63° 186° (S) 04:54:56 2401.200-2431.200
AO-7 03 Dec 04:52:18 05:00:27 58° 295° (WNW) 05:08:33 29.400- 29.500
BEESAT 3 03 Dec 04:53:54 04:55:58 14° 110° (ESE) 04:58:03 437.485
CUBESAT XI-V 03 Dec 04:56:35 05:00:55 41° 262° (W) 05:05:16 437.345
AO-85 03 Dec 04:58:55 05:01:07 13° 322° (NW) 05:03:15 145.980
GOMX 1 03 Dec 05:03:22 05:07:34 22° 92° (E) 05:11:47 467.674
BRITE-PL 03 Dec 05:08:38 05:13:52 54° 100° (E) 05:19:21 437.365/2234.400
CUTE-I 03 Dec 05:10:20 05:12:19 12° 89° (E) 05:14:16 437.470
BEESAT 2 03 Dec 05:16:35 05:17:38 11° 108° (ESE) 05:18:41 435.950
Cosmos 2491 03 Dec 05:20:57 05:22:48 11° 72° (ENE) 05:24:38 435.465 / 435.565
HORYU 2 03 Dec 05:27:37 05:32:01 59° 101° (E) 05:36:23 437.375
DOVE 4 03 Dec 05:32:12 05:35:43 18° 90° (E) 05:39:11 437.250
STRAND 1 03 Dec 05:32:51 05:36:37 21° 63° (ENE) 05:40:25 437.568
Cubesat XI-IV 03 Dec 05:33:31 05:37:27 21° 93° (E) 05:41:22 437.490
RS-15 03 Dec 05:37:23 05:37:39 10° 91° (E) 05:37:54 29.354- 29.394
NOAA 15 03 Dec 05:42:35 05:47:04 28° 95° (E) 05:51:32 137.62
SO-50 03 Dec 06:03:18 06:07:48 69° 240° (WSW) 06:12:13 436.795
Cosmos 2504 03 Dec 06:10:21 06:17:45 29° 67° (ENE) 06:24:52 435.465 / 435.565
AIST 1 03 Dec 06:11:29 06:13:52 14° 69° (ENE) 06:16:14
PHONESAT 2.4 03 Dec 06:25:07 06:27:21 23° 202° (SSW) 06:29:33 2401.200-2431.200
NOAA 18 03 Dec 06:27:49 06:33:03 41° 98° (E) 06:38:14 137.9125
BEESAT 3 03 Dec 06:29:22 06:33:10 50° 307° (NW) 06:37:01 437.485
LilacSat-2 03 Dec 06:31:31 06:35:19 87° 284° (WNW) 06:39:04 437.200
GOMX 1 03 Dec 06:40:36 06:45:50 50° 288° (WNW) 06:51:08 467.674
YUBILEINY 03 Dec 06:42:58 06:51:50 83° 81° (E) 07:00:42 435.215
CUTE 1.7 + AOD 2 03 Dec 06:47:01 06:48:20 11° 90° (E) 06:49:39 437.475
CUTE-I 03 Dec 06:47:38 06:53:00 83° 285° (WNW) 06:58:19 437.470
AO-7 03 Dec 06:47:42 06:51:26 14° 316° (NW) 06:55:11 29.400- 29.500
BRITE-PL 03 Dec 06:48:00 06:51:58 22° 295° (WNW) 06:56:06 437.365/2234.400
BEESAT 2 03 Dec 06:50:57 06:54:51 65° 304° (NW) 06:58:50 435.950
HO-68 03 Dec 06:59:58 07:05:49 26° 94° (E) 07:11:38 435.675
CANX-2 03 Dec 07:02:42 07:05:52 20° 94° (E) 07:09:01 2200.000
HORYU 2 03 Dec 07:05:42 07:08:04 14° 298° (WNW) 07:10:25 437.375
DOVE 4 03 Dec 07:08:31 07:13:46 60° 287° (WNW) 07:18:54 437.250
Cosmos 2491 03 Dec 07:09:07 07:17:45 65° 92° (E) 07:26:22 435.465 / 435.565
STRAND 1 03 Dec 07:10:27 07:15:26 50° 260° (W) 07:20:26 437.568
Cubesat XI-IV 03 Dec 07:12:38 07:17:48 51° 289° (WNW) 07:22:56 437.490
CINEMA 3 03 Dec 07:14:53 07:19:32 43° 97° (E) 07:23:59 145.822/145.860
NOAA 15 03 Dec 07:22:04 07:26:53 37° 292° (WNW) 07:31:42 137.62
AAUSAT CUBESAT 2 03 Dec 07:27:22 07:28:24 11° 90° (E) 07:29:25 437.432
SEEDS 03 Dec 07:34:59 07:38:33 27° 95° (E) 07:42:06 437.485
RS-15 03 Dec 07:35:48 07:47:05 57° 112° (ESE) 07:58:52 29.354- 29.394
PRISM 03 Dec 07:43:57 07:47:16 25° 68° (ENE) 07:50:37 437.425
AIST 1 03 Dec 07:47:30 07:51:48 52° 266° (W) 07:56:04
COMPASS 1 03 Dec 07:51:55 07:55:29 27° 96° (E) 07:59:04 437.405
CUBEBUG 2 03 Dec 07:56:04 07:59:54 28° 95° (E) 08:03:36 437.445
ZACube-1 03 Dec 08:00:19 08:01:35 11° 89° (E) 08:02:49 437.345
Cosmos 2504 03 Dec 08:03:05 08:11:50 66° 268° (W) 08:20:07 435.465 / 435.565
NOAA 18 03 Dec 08:08:51 08:13:30 28° 296° (WNW) 08:18:07 137.9125
FUNcube-1 03 Dec 08:09:19 08:11:20 13° 90° (E) 08:13:21 145.935
CUTE 1.7 + AOD 2 03 Dec 08:20:23 08:24:33 60° 286° (WNW) 08:28:42 437.475
CUTE-I 03 Dec 08:30:18 08:32:11 12° 303° (WNW) 08:34:04 437.470
CANX-2 03 Dec 08:38:00 08:41:47 33° 289° (WNW) 08:45:34 2200.000
YUBILEINY 03 Dec 08:41:35 08:47:29 20° 282° (WNW) 08:53:25 435.215
Oscar 11 03 Dec 08:42:53 08:46:43 31° 96° (E) 08:50:32 145.826/435.025
UWE-3 03 Dec 08:45:19 08:49:39 62° 101° (E) 08:53:50 435.000/436.395/437.385
HO-68 03 Dec 08:46:52 08:53:56 61° 291° (WNW) 09:00:59 435.675
AIST 2 03 Dec 08:48:35 08:52:35 55° 119° (ESE) 08:56:39 435.215
UNISAT 6 03 Dec 08:50:19 08:54:26 31° 69° (ENE) 08:58:33 437.425
CINEMA 3 03 Dec 08:52:40 08:56:19 21° 295° (WNW) 08:59:52 145.822/145.860
DELFI C3 03 Dec 08:54:17 08:56:22 14° 91° (E) 08:58:26 145.870
AAUSAT CUBESAT 2 03 Dec 09:00:10 09:04:15 61° 285° (WNW) 09:08:20 437.432
JAS-2 03 Dec 09:06:45 09:10:03 15° 60° (ENE) 09:13:11 435.910
Cosmos 2491 03 Dec 09:07:54 09:15:12 29° 293° (WNW) 09:22:32 435.465 / 435.565
SEEDS 03 Dec 09:10:42 09:14:08 25° 291° (WNW) 09:17:34 437.485
CUSAT 1 03 Dec 09:15:03 09:17:42 20° 96° (E) 09:20:01 437.405
PRISM 03 Dec 09:19:03 09:22:28 26° 264° (W) 09:25:54 437.425
TIGRISAT 03 Dec 09:20:47 09:25:24 59° 74° (ENE) 09:30:01 435.000
ANTELSAT 03 Dec 09:21:20 09:25:59 64° 74° (ENE) 09:30:37 437.575/2403.000
COMPASS 1 03 Dec 09:27:34 09:30:56 24° 292° (WNW) 09:34:18 437.405
DANDE 03 Dec 09:29:12 09:30:57 12° 93° (E) 09:32:34 436.750
CUBEBUG 2 03 Dec 09:32:42 09:36:26 27° 292° (WNW) 09:40:04 437.445
ZACube-1 03 Dec 09:34:04 09:38:18 61° 285° (WNW) 09:42:25 437.345
FUNcube-1 03 Dec 09:43:47 09:47:56 51° 287° (WNW) 09:51:58 145.935
RS-15 03 Dec 09:48:25 09:59:52 50° 317° (NW) 10:11:48 29.354- 29.394
HUMSAT D 03 Dec 09:55:19 09:59:06 36° 98° (E) 10:02:51 437.325/437.525
Cosmos 2504 03 Dec 10:00:33 10:03:19 12° 288° (WNW) 10:06:03 435.465 / 435.565
AO-85 03 Dec 10:08:01 10:09:43 12° 38° (NE) 10:11:23 145.980
NANOSAT C BR1 03 Dec 10:11:04 10:14:24 23° 67° (ENE) 10:17:45 145.865
QB50P2 03 Dec 10:13:21 10:16:58 27° 69° (ENE) 10:20:36 145.880/145.840
POLYITAN 1 03 Dec 10:14:01 10:17:36 26° 68° (ENE) 10:21:12 437.675
Oscar 11 03 Dec 10:19:16 10:22:42 23° 292° (WNW) 10:26:07 145.826/435.025
UWE-3 03 Dec 10:23:36 10:25:33 13° 298° (WNW) 10:27:27 435.000/436.395/437.385
UNISAT 6 03 Dec 10:27:06 10:31:06 27° 265° (W) 10:35:06 437.425
DELFI C3 03 Dec 10:27:37 10:31:23 44° 287° (WNW) 10:35:11 145.870
QB50P1 03 Dec 10:27:45 10:31:40 36° 70° (ENE) 10:35:36 145.935-145.965
AIST 2 03 Dec 10:28:31 10:31:23 18° 317° (NW) 10:34:17 435.215
DUCHIFAT 1 03 Dec 10:34:18 10:38:12 36° 71° (ENE) 10:42:08 145.980
HO-68 03 Dec 10:37:34 10:40:13 12° 311° (NW) 10:42:52 435.675
JAS-2 03 Dec 10:47:45 10:54:30 88° 68° (ENE) 11:00:27 435.910
POPSAT HIP 1 03 Dec 10:48:35 10:52:48 61° 75° (ENE) 10:57:03 437.405
CUSAT 1 03 Dec 10:57:50 10:59:30 13° 285° (WNW) 11:01:03 437.405
TIGRISAT 03 Dec 10:59:54 11:02:25 14° 269° (W) 11:04:58 435.000
ANTELSAT 03 Dec 11:00:48 11:03:04 13° 270° (W) 11:05:20 437.575/2403.000
DANDE 03 Dec 11:08:31 11:13:33 55° 280° (W) 11:17:22 436.750
CUBEBUG 1 03 Dec 11:11:17 11:14:45 22° 94° (E) 11:18:12 437.445
Cosmos 2499 03 Dec 11:12:29 11:20:23 37° 70° (ENE) 11:27:47 435.465 / 435.565
VELOX 1 03 Dec 11:14:17 11:17:02 16° 92° (E) 11:19:45 145.980
50 SAT 03 Dec 11:17:58 11:19:05 11° 92° (E) 11:20:12 437.505
GONETS M04 03 Dec 11:19:54 11:27:52 38° 71° (ENE) 11:35:47
HUMSAT D 03 Dec 11:31:38 11:34:27 18° 294° (WNW) 11:37:16 437.325/437.525
PCSat 03 Dec 11:32:31 11:37:18 33° 110° (ESE) 11:42:07 145.827
DX 1 03 Dec 11:38:29 11:41:02 15° 92° (E) 11:43:34 434.975-435.025
Oscar 19 03 Dec 11:39:12 11:42:57 21° 63° (ENE) 11:46:43 437.125/150
BUGSAT 1 03 Dec 11:44:00 11:48:13 85° 74° (ENE) 11:52:29 437.445
NANOSAT C BR1 03 Dec 11:46:07 11:49:56 32° 263° (W) 11:53:47 145.865
AO-85 03 Dec 11:46:45 11:50:45 85° 238° (WSW) 11:54:36 145.980
QB50P2 03 Dec 11:49:05 11:52:42 26° 265° (W) 11:56:19 145.880/145.840
POLYITAN 1 03 Dec 11:49:37 11:53:18 27° 264° (W) 11:57:00 437.675
UKube-1 03 Dec 11:51:55 11:54:30 15° 92° (E) 11:57:06 .
ESTCUBE 1 03 Dec 11:52:05 11:56:36 83° 286° (WNW) 12:01:08 437.505/2401.250
QB50P1 03 Dec 12:04:24 12:07:32 20° 267° (W) 12:10:40 145.935-145.965
RS-15 03 Dec 12:06:55 12:16:25 25° 349° (NNW) 12:26:03 29.354- 29.394
SPROUT 03 Dec 12:10:08 12:14:13 41° 98° (E) 12:18:16 437.525
DUCHIFAT 1 03 Dec 12:10:55 12:13:59 19° 267° (W) 12:17:05 145.980
AISAT 03 Dec 12:12:08 12:16:37 71° 103° (ESE) 12:21:04 437.250
AO-7 03 Dec 12:14:17 12:16:10 11° 40° (NE) 12:18:02 29.400- 29.500
POPSAT HIP 1 03 Dec 12:27:22 12:28:57 12° 270° (W) 12:30:33 437.405
JAS-2 03 Dec 12:36:55 12:40:03 14° 269° (W) 12:43:03 435.910
CUBEBUG 1 03 Dec 12:47:03 12:51:05 34° 290° (WNW) 12:55:06 437.445
Gurwin Techsat 1B 03 Dec 12:47:53 12:52:55 46° 70° (ENE) 12:57:59 435.225
50 SAT 03 Dec 12:49:13 12:52:36 42° 287° (WNW) 12:55:59 437.505
VELOX 1 03 Dec 12:49:26 12:53:45 49° 288° (WNW) 12:58:02 145.980
Cosmos 2499 03 Dec 13:05:29 13:13:43 50° 272° (W) 13:21:25 435.465 / 435.565
BEESAT 3 03 Dec 13:09:55 13:11:44 13° 40° (NE) 13:13:33 437.485
DX 1 03 Dec 13:13:14 13:17:29 50° 288° (WNW) 13:21:44 434.975-435.025
PCSat 03 Dec 13:15:38 13:20:37 37° 308° (NW) 13:25:38 145.827
GONETS M04 03 Dec 13:16:37 13:24:50 49° 271° (W) 13:33:04
Oscar 19 03 Dec 13:16:57 13:21:54 50° 260° (W) 13:26:54 437.125/150
UKube-1 03 Dec 13:26:36 13:30:47 47° 288° (WNW) 13:34:56 .
BEESAT 2 03 Dec 13:32:50 13:34:00 11° 38° (NE) 13:35:09 435.950
ITAMSAT 1 03 Dec 13:38:52 13:43:28 33° 67° (ENE) 13:48:05 435.822/435.867
TISAT 1 03 Dec 13:43:03 13:47:18 73° 102° (ESE) 13:51:30 437.305
SWISSCUBE 03 Dec 13:44:38 13:47:38 16° 92° (E) 13:50:37 437.505
SPROUT 03 Dec 13:46:53 13:49:50 18° 295° (WNW) 13:52:45 437.525
AUBIESAT-1 03 Dec 13:47:07 13:49:24 14° 95° (E) 13:51:39 437.475
BEESAT 03 Dec 13:49:03 13:52:02 16° 92° (E) 13:54:59 436.000
AISAT 03 Dec 13:50:36 13:52:29 12° 299° (WNW) 13:54:22 437.250
M-CUBED/EXP-1 PRIME 03 Dec 13:55:39 13:59:13 21° 98° (E) 14:02:41 437.505
AO-7 03 Dec 13:59:04 14:06:51 47° 62° (ENE) 14:14:40 29.400- 29.500
ITUPSAT 1 03 Dec 14:13:44 14:17:51 28° 96° (E) 14:21:56 437.325
RS-15 03 Dec 14:24:02 14:34:30 30° 24° (NNE) 14:44:49 29.354- 29.394
Gurwin Techsat 1B 03 Dec 14:28:55 14:33:03 23° 266° (W) 14:37:14 435.225
BEESAT 3 03 Dec 14:45:55 14:49:55 85° 238° (WSW) 14:53:53 437.485
BEESAT 2 03 Dec 15:08:27 15:12:29 77° 56° (NE) 15:16:30 435.950
ITAMSAT 1 03 Dec 15:18:15 15:22:53 32° 263° (W) 15:27:31 435.822/435.867
AUBIESAT-1 03 Dec 15:19:36 15:24:12 64° 291° (WNW) 15:28:38 437.475
MOZHAYETS 4 03 Dec 15:21:00 15:25:11 35° 97° (E) 15:29:21
SWISSCUBE 03 Dec 15:21:06 15:25:44 52° 288° (WNW) 15:30:19 437.505
TISAT 1 03 Dec 15:21:13 15:22:19 11° 299° (WNW) 15:23:25 437.305
BEESAT 03 Dec 15:25:29 15:30:07 53° 288° (WNW) 15:34:43 436.000
M-CUBED/EXP-1 PRIME 03 Dec 15:29:21 15:33:48 43° 294° (WNW) 15:38:08 437.505
ITUPSAT 1 03 Dec 15:51:28 15:55:38 31° 292° (WNW) 15:59:46 437.325
AO-7 03 Dec 15:51:59 15:59:39 41° 261° (W) 16:07:25 29.400- 29.500
ISS 03 Dec 16:09:47 16:10:57 11° 129° (SE) 16:12:06 145.825
GOMX 1 03 Dec 16:12:21 16:15:40 20° 64° (ENE) 16:19:10 467.674
KKS-1 03 Dec 16:12:48 16:17:12 51° 100° (E) 16:21:34 437.445
NOAA 18 03 Dec 16:17:54 16:19:58 12° 56° (NE) 16:22:02 137.9125
BRITE-PL 03 Dec 16:20:22 16:24:29 55° 73° (ENE) 16:28:53 437.365/2234.400
HORYU 2 03 Dec 16:25:26 16:29:49 56° 73° (ENE) 16:34:13 437.375
STARS 03 Dec 16:27:18 16:31:20 34° 97° (E) 16:35:20 437.465
CUTE-I 03 Dec 16:31:19 16:35:23 23° 63° (ENE) 16:39:28 437.470
RS-15 03 Dec 16:37:16 16:49:42 72° 53° (NE) 17:01:42 29.354- 29.394
DOVE 4 03 Dec 16:38:10 16:41:13 17° 62° (ENE) 16:44:24 437.250
O/OREOS (USA 219) 03 Dec 16:48:28 16:53:02 84° 291° (WNW) 16:57:37 437.305
CUBESAT XI-V 03 Dec 16:52:26 16:56:55 46° 99° (E) 17:01:25 437.345
Cubesat XI-IV 03 Dec 16:55:21 17:00:11 35° 67° (ENE) 17:05:03 437.490
MOZHAYETS 4 03 Dec 16:58:33 17:02:10 23° 293° (WNW) 17:05:44
NOAA 15 03 Dec 17:02:41 17:07:39 45° 70° (ENE) 17:12:38 137.62
AIST 2 03 Dec 17:09:37 17:13:37 39° 51° (NE) 17:17:36 435.215
LilacSat-2 03 Dec 17:13:17 17:16:58 45° 73° (ENE) 17:20:40 437.200
Cosmos 2491 03 Dec 17:19:36 17:27:12 32° 69° (ENE) 17:34:43 435.465 / 435.565
HO-68 03 Dec 17:30:01 17:35:07 22° 56° (NE) 17:40:14 435.675
ISS 03 Dec 17:43:42 17:46:59 82° 325° (NW) 17:50:18 145.825
GOMX 1 03 Dec 17:49:11 17:53:24 42° 263° (W) 17:57:58 467.674
KKS-1 03 Dec 17:50:32 17:53:20 17° 297° (WNW) 17:56:08 437.445
YUBILEINY 03 Dec 17:51:15 17:56:45 19° 77° (ENE) 18:02:17 435.215
NOAA 18 03 Dec 17:54:11 17:59:43 79° 74° (ENE) 18:05:17 137.9125
CANX-2 03 Dec 17:56:21 17:58:55 16° 65° (ENE) 18:01:29 2200.000
BRITE-PL 03 Dec 18:01:35 18:03:28 13° 272° (W) 18:05:24 437.365/2234.400
STARS 03 Dec 18:04:00 18:07:30 23° 294° (WNW) 18:10:57 437.465
HORYU 2 03 Dec 18:04:22 18:06:42 14° 269° (W) 18:09:02 437.375
CUTE-I 03 Dec 18:09:52 18:15:04 50° 260° (W) 18:20:18 437.470
DOVE 4 03 Dec 18:13:44 18:18:21 58° 261° (W) 18:23:18 437.250
CINEMA 3 03 Dec 18:15:55 18:20:29 41° 71° (ENE) 18:25:11 145.822/145.860
SEEDS 03 Dec 18:27:17 18:30:19 20° 67° (ENE) 18:33:22 437.485
CUBESAT XI-V 03 Dec 18:30:43 18:33:57 19° 295° (WNW) 18:37:11 437.345
O/OREOS (USA 219) 03 Dec 18:32:11 18:33:11 11° 311° (NW) 18:34:11 437.305
Cubesat XI-IV 03 Dec 18:35:33 18:40:15 31° 264° (W) 18:44:59 437.490
COMPASS 1 03 Dec 18:43:15 18:46:16 20° 67° (ENE) 18:49:15 437.405
NOAA 15 03 Dec 18:43:35 18:47:37 22° 266° (W) 18:51:42 137.62
AIST 2 03 Dec 18:48:39 18:51:51 21° 248° (WSW) 18:55:01 435.215
LilacSat-2 03 Dec 18:49:44 18:51:30 13° 269° (W) 18:53:15 437.200
Cosmos 2504 03 Dec 18:50:06 18:56:01 22° 78° (ENE) 19:02:08 435.465 / 435.565
RS-15 03 Dec 18:50:45 19:01:15 35° 256° (WSW) 19:11:27 29.354- 29.394
CUBEBUG 2 03 Dec 18:53:52 18:57:49 27° 68° (ENE) 19:01:46 437.445
ZACube-1 03 Dec 18:56:39 18:58:04 11° 61° (ENE) 18:59:29 437.345
FUNcube-1 03 Dec 19:05:20 19:07:23 13° 63° (ENE) 19:09:25 145.935
CUTE 1.7 + AOD 2 03 Dec 19:12:42 19:16:55 86° 251° (WSW) 19:21:10 437.475
HO-68 03 Dec 19:14:52 19:22:02 80° 254° (WSW) 19:29:16 435.675
Cosmos 2491 03 Dec 19:16:00 19:24:27 57° 269° (W) 19:32:53 435.465 / 435.565
STRAND 1 03 Dec 19:20:32 19:25:33 54° 101° (E) 19:30:30 437.568
ISS 03 Dec 19:21:22 19:23:53 20° 344° (NNW) 19:26:26 145.825
CANX-2 03 Dec 19:30:20 19:34:24 46° 261° (W) 19:38:28 2200.000
Oscar 11 03 Dec 19:37:58 19:41:30 25° 68° (ENE) 19:45:02 145.826/435.025
NOAA 18 03 Dec 19:38:17 19:40:58 14° 270° (W) 19:43:40 137.9125
UWE-3 03 Dec 19:41:41 19:46:12 52° 73° (ENE) 19:50:43 435.000/436.395/437.385
YUBILEINY 03 Dec 19:43:36 19:52:18 87° 276° (W) 20:01:07 435.215
CUSAT 1 03 Dec 19:45:04 19:47:09 15° 75° (ENE) 19:49:30 437.405
AAUSAT CUBESAT 2 03 Dec 19:49:59 19:54:05 86° 79° (ENE) 19:58:13 437.432
CINEMA 3 03 Dec 19:53:53 19:57:45 23° 268° (W) 20:01:42 145.822/145.860
SEEDS 03 Dec 20:01:58 20:05:47 34° 263° (W) 20:09:37 437.485
AIST 1 03 Dec 20:16:28 20:20:46 90° 317° (NW) 20:25:07
SO-50 03 Dec 20:17:25 20:21:47 36° 116° (ESE) 20:26:07 436.795
COMPASS 1 03 Dec 20:17:49 20:21:35 34° 263° (W) 20:25:21 437.405
PCSat 03 Dec 20:19:44 20:24:32 30° 50° (NE) 20:29:17 145.827
ZACube-1 03 Dec 20:29:07 20:33:42 80° 256° (WSW) 20:38:15 437.345
CUBEBUG 2 03 Dec 20:29:59 20:34:17 33° 264° (W) 20:38:35 437.445
FUNcube-1 03 Dec 20:38:31 20:43:04 69° 259° (W) 20:47:34 145.935
Cosmos 2504 03 Dec 20:40:01 20:48:17 79° 279° (W) 20:57:07 435.465 / 435.565
HUMSAT D 03 Dec 20:46:41 20:50:14 27° 69° (ENE) 20:53:47 437.325/437.525
ISS 03 Dec 20:59:21 21:01:20 15° 4° (N) 21:03:20 145.825
PRISM 03 Dec 20:59:24 21:03:18 38° 98° (E) 21:07:11 437.425
STRAND 1 03 Dec 21:00:43 21:04:17 19° 297° (WNW) 21:07:51 437.568
HO-68 03 Dec 21:07:40 21:10:48 13° 273° (W) 21:13:57 435.675
DELFI C3 03 Dec 21:12:51 21:16:45 79° 258° (WSW) 21:20:42 145.870
Oscar 11 03 Dec 21:13:45 21:17:31 29° 264° (W) 21:21:17 145.826/435.025
TIGRISAT 03 Dec 21:14:38 21:16:04 11° 89° (E) 21:17:28 435.000
ANTELSAT 03 Dec 21:14:59 21:16:50 12° 89° (E) 21:18:39 437.575/2403.000
UWE-3 03 Dec 21:20:02 21:22:56 16° 269° (W) 21:25:49 435.000/436.395/437.385
CUSAT 1 03 Dec 21:25:47 21:28:56 32° 263° (W) 21:32:53 437.405
YUBILEINY 03 Dec 21:44:48 21:50:29 19° 299° (WNW) 21:56:13 435.215
DANDE 03 Dec 21:45:10 21:47:53 85° 265° (W) 21:51:05 436.750
SO-50 03 Dec 21:58:06 22:02:18 30° 313° (NW) 22:06:28 436.795
PCSat 03 Dec 22:02:57 22:08:02 42° 248° (WSW) 22:13:05 145.827
CUBEBUG 1 03 Dec 22:07:47 22:10:53 19° 65° (ENE) 22:14:00 437.445
VELOX 1 03 Dec 22:12:13 22:14:48 15° 63° (ENE) 22:17:22 145.980
UNISAT 6 03 Dec 22:17:54 22:22:19 63° 100° (E) 22:26:36 437.425
HUMSAT D 03 Dec 22:22:15 22:25:47 25° 265° (W) 22:29:18 437.325/437.525
DX 1 03 Dec 22:34:43 22:37:04 14° 63° (ENE) 22:39:27 434.975-435.025
PRISM 03 Dec 22:35:25 22:38:19 19° 295° (WNW) 22:41:12 437.425
ISS 03 Dec 22:35:39 22:38:38 30° 24° (NNE) 22:41:36 145.825
Cosmos 2504 03 Dec 22:38:12 22:43:18 17° 301° (WNW) 22:48:35 435.465 / 435.565
UKube-1 03 Dec 22:47:07 22:49:29 15° 63° (ENE) 22:51:51 .
TIGRISAT 03 Dec 22:48:49 22:53:13 64° 286° (WNW) 22:57:29 435.000
ANTELSAT 03 Dec 22:49:35 22:53:58 59° 286° (WNW) 22:58:12 437.575/2403.000
ESTCUBE 1 03 Dec 22:51:27 22:55:55 89° 253° (WSW) 23:00:26 437.505/2401.250
SPROUT 03 Dec 23:03:39 23:07:29 32° 70° (ENE) 23:11:21 437.525
AISAT 03 Dec 23:09:17 23:13:38 63° 74° (ENE) 23:18:03 437.250
50 SAT 03 Dec 23:24:12 23:27:41 73° 76° (ENE) 23:31:11 437.505
BUGSAT 1 03 Dec 23:27:38 23:29:18 12° 90° (E) 23:30:57 437.445
NANOSAT C BR1 03 Dec 23:29:49 23:33:47 37° 98° (E) 23:37:42 145.865
QB50P2 03 Dec 23:32:57 23:37:05 47° 99° (E) 23:41:09 145.880/145.840
POLYITAN 1 03 Dec 23:33:35 23:37:40 45° 99° (E) 23:41:43 437.675
JAS-2 03 Dec 23:41:36 23:46:48 74° 103° (ESE) 23:52:09 435.910
CUBEBUG 1 03 Dec 23:42:47 23:46:52 40° 262° (W) 23:51:00 437.445
VELOX 1 03 Dec 23:46:30 23:50:48 54° 260° (W) 23:55:09 145.980
QB50P1 03 Dec 23:47:25 23:51:39 65° 101° (E) 23:55:51 145.935-145.965
Cosmos 2499 03 Dec 23:49:10 23:56:07 29° 82° (E) 00:03:19 435.465 / 435.565
DUCHIFAT 1 03 Dec 23:53:15 23:57:28 65° 102° (ESE) 00:01:37 145.980
UNISAT 6 03 Dec 23:56:22 23:58:28 13° 298° (WNW) 00:00:32 437.425
DX 1 04 Dec 00:08:31 00:12:47 56° 259° (W) 00:17:06 434.975-435.025
POPSAT HIP 1 04 Dec 00:08:41 00:12:56 73° 286° (WNW) 00:17:08 437.405
ISS 04 Dec 00:12:03 00:15:12 41° 222° (SW) 00:18:20 145.825
UKube-1 04 Dec 00:20:51 00:25:03 55° 259° (W) 00:29:19 .
GONETS M04 04 Dec 00:21:18 00:29:18 43° 87° (E) 00:37:18
AUBIESAT-1 04 Dec 00:32:31 00:35:12 17° 58° (ENE) 00:38:00 437.475
TISAT 1 04 Dec 00:34:25 00:38:33 54° 73° (ENE) 00:42:43 437.305
SPROUT 04 Dec 00:40:05 00:43:27 22° 266° (W) 00:46:49 437.525
M-CUBED/EXP-1 PRIME 04 Dec 00:41:43 00:45:03 25° 61° (ENE) 00:48:35 437.505
AISAT 04 Dec 00:48:48 00:50:31 12° 270° (W) 00:52:14 437.250
SWISSCUBE 04 Dec 00:51:13 00:54:44 21° 64° (ENE) 00:58:16 437.505
BEESAT 04 Dec 00:55:33 00:59:04 21° 64° (ENE) 01:02:35 436.000
BUGSAT 1 04 Dec 01:00:53 01:05:02 56° 286° (WNW) 01:09:05 437.445
Gurwin Techsat 1B 04 Dec 01:04:50 01:08:20 18° 91° (E) 01:11:48 435.225
NANOSAT C BR1 04 Dec 01:06:13 01:09:13 19° 294° (WNW) 01:12:13 145.865
QB50P2 04 Dec 01:09:54 01:12:29 16° 296° (WNW) 01:15:02 145.880/145.840
POLYITAN 1 04 Dec 01:10:26 01:13:06 16° 296° (WNW) 01:15:45 437.675
